Preview of NWS' New Version of Forecast
This preview is not operational and should not be used for support decisions.

Regional Weather Roundup (RWR)

Issued by National Weather Service (NWS)

                            
000
ASUS43 KLSX 231007
RWRMO 

WEATHER SUMMARY FOR MISSOURI
NATIONAL WEATHER SERVICE SPRINGFIELD MO
400 AM CST SAT FEB 23 2019

NOTE: "FAIR" INDICATES FEW OR NO CLOUDS BELOW 12,000 FEET WITH NO
       SIGNIFICANT WEATHER AND/OR OBSTRUCTIONS TO VISIBILITY.
       CURRENT SKY AND/OR WEATHER CONDITIONS ARE NOT AVAILABLE FOR
       CHILLICOTHE AND FARMINGTON.

MOZ001>031-035>038-043-044-053-054-231100-
...NORTHERN AND WESTERN MISSOURI...
  
CITY           SKY/WX    TMP DP  RH WIND       PRES   REMARKS
KANSAS CTY INT LGT RAIN  35  34  96 SE10      29.85F VSB 1/2 WCI  27  
KANSAS C DTWN  CLOUDY    37  34  89 E7        29.86F FOG              
LEE'S SUMMIT   FOG       34  34 100 NE9       29.87F VSB 1   WCI  27  
ST JOSEPH      LGT RAIN  33  31  92 N7        29.89F FOG     WCI  27  
CHILLICOTHE      N/A     36  36 100 SE8       29.93F WCI  30          
KIRKSVILLE     MIX PCPN  34  32  92 N7        29.95F VSB 1   WCI  28  
     
$$
MOZ066>068-077>081-088>096-101>105-231100-
...SOUTHWEST MISSOURI...
  
CITY           SKY/WX    TMP DP  RH WIND       PRES   REMARKS
SPRINGFIELD    CLOUDY    43  41  93 SE18G24   29.84F FOG              
JOPLIN         CLOUDY    47  45  93 SE10      29.79F                  
BRANSON        FOG       39  39 100 SE8       29.88F VSB<1/4          
               
$$
MOZ032>034-039>042-045>050-055>058-069>072-231100-
...CENTRAL MISSOURI...  
  
CITY           SKY/WX    TMP DP  RH WIND       PRES   REMARKS
COLUMBIA       FOG       39  38  96 SE8       29.90F VSB 1/2          
JEFFERSON CITY CLOUDY    40  38  93 SE9       29.91F FOG              
ROLLA          FOG       39  38  96 SE13      29.90F VSB 1            
SEDALIA        HAZE      37  32  82 E7        29.88F VSB 1/4          
WHITEMAN AFB   FOG       37  37 100 E6        29.85F VSB 1/4          
WARRENSBURG    FOG       36  36 100 N5        29.87F VSB 1/4          
OSAGE BEACH    LGT RAIN  41  40  96 SE6       29.89F FOG              
               
$$
MOZ051-052-059>065-231100-
...EAST CENTRAL MISSOURI...
  
CITY           SKY/WX    TMP DP  RH WIND       PRES   REMARKS
ST LOUIS INTL  DRIZZLE   41  39  93 SE9       29.98F FOG              
SPIRIT OF STL  CLOUDY    42  40  92 E6        29.96F FOG              
ST CHARLES     CLOUDY    41  38  89 E9        29.97F FOG              
                   
$$
MOZ072>076-082>087-097>100-106>115-231100-
...SOUTH CENTRAL AND SOUTHEAST MISSOURI...
  
CITY           SKY/WX    TMP DP  RH WIND       PRES   REMARKS
CAPE GIRARDEAU CLOUDY    47  43  86 NE3       29.96S                  
FARMINGTON     LGT RAIN  40  40 100 E8        29.94F VSB 1            
POPLAR BLUFF   LGT RAIN  44  44 100 NE5       29.95F FOG              
WEST PLAINS    FOG       42  41  96 E5        29.92F VSB 1/4          
                                       
$$